This is the latest recevied weather packets stored in our database for station/object KF7U. If no packets are shown the sender has not sent any weather packets the latest 10 day(s).
| Time | Temp. | Humidity | Pressure | Rain* | Wind** | Luminosity | Snow |
|---|---|---|---|---|---|---|---|
| 1777152455 | 28.89° C | 19% | 1007.5 hPa | 0 mm | - | 937 W/m² | - |
| 1777152154 | 28.89° C | 20% | 1007.5 hPa | 0 mm | - | 953 W/m² | - |
| 1777151856 | 28.33° C | 20% | 1007.5 hPa | 0 mm | - | 961 W/m² | - |
| 1777151554 | 28.33° C | 20% | 1007.5 hPa | 0 mm | - | 1092 W/m² | - |
| 1777151254 | 28.33° C | 19% | 1007.5 hPa | 0 mm | - | 373 W/m² | - |
| 1777150955 | 28.33° C | 20% | 1007.5 hPa | 0 mm | - | 868 W/m² | - |
| 1777150655 | 28.33° C | 19% | 1007.8 hPa | 0 mm | - | 580 W/m² | - |
| 1777150354 | 28.89° C | 19% | 1007.8 hPa | 0 mm | - | 921 W/m² | - |
| 1777150055 | 29.44° C | 20% | 1007.8 hPa | 0 mm | - | - | - |
| 1777149754 | 28.89° C | 19% | 1007.8 hPa | 0 mm | - | 1159 W/m² | - |
| 1777149454 | 29.44° C | 19% | 1007.8 hPa | 0 mm | - | 941 W/m² | - |
| 1777149156 | 28.89° C | 19% | 1007.8 hPa | 0 mm | - | 1155 W/m² | - |
| 1777148555 | 27.78° C | 21% | 1007.8 hPa | 0 mm | - | 896 W/m² | - |
| 1777148255 | 27.78° C | 20% | 1008.1 hPa | 0 mm | - | 1314 W/m² | - |
| 1777147956 | 27.22° C | 20% | 1008.1 hPa | 0 mm | - | 654 W/m² | - |
| 1777147654 | 27.78° C | 20% | 1008.1 hPa | 0 mm | - | 645 W/m² | - |
| 1777147355 | 27.78° C | 19% | 1008.1 hPa | 0 mm | - | 781 W/m² | - |
| 1777147055 | 27.78° C | 19% | 1008.1 hPa | 0 mm | - | 647 W/m² | - |
| 1777146755 | 27.78° C | 20% | 1007.8 hPa | 0 mm | - | 756 W/m² | - |
| 1777146454 | 27.22° C | 21% | 1007.8 hPa | 0 mm | - | 706 W/m² | - |
| 1777146154 | 26.67° C | 20% | 1008.1 hPa | 0 mm | - | 685 W/m² | - |
| 1777145854 | 26.67° C | 21% | 1008.1 hPa | 0 mm | - | 540 W/m² | - |
| 1777145555 | 26.67° C | 21% | 1008.1 hPa | 0 mm | - | 517 W/m² | - |
| 1777145261 | 26.67° C | 21% | 1008.1 hPa | 0 mm | - | 642 W/m² | - |
| 1777144956 | 26.67° C | 21% | 1008.5 hPa | 0 mm | - | 621 W/m² | - |
* Rain latest hour (hover to see other rain measurements)
** Current wind speed in m/s (hover to see current wind gust speed)